Current weather by "City, St" or "zip code"  
 

Current Conditions: Midland, Midland Airpark, TX

Fair


82.0 F

Last Updated on May 21 2022, 4:35 am CDT
Humidity: 15%
Wind Speed: S 15.0 mph
Barometer 29.77 in
Dewpoint: 29.1 F
Visibility: 10.00 mi
Precip: --
Heat Index: 80 F
Wind Chill: NA
Current conditions at:

Midland, Midland Airpark, TX (KMDD)

Lat: 32.03639 Lon: 102.10083

Local Radar Image active severe weather and emergency alerts image image weather storm and storm spotter reports image weather observation monitoring service image
Local
Radar
Active
Alerts
Storm Reports Obs
Monitoring

Sign-up For Email & Text Message Weather Alert Notification Services



Advertise Here

Observation History for Midland, Midland Airpark, TX


Time Wind
(mph)
Vis
(mi)
Weather Precip (in) Temperature (F) Relative
Humidity
Wind
Chill
(F)
Heat
Index
(F)
Pressure
Air Dwpt altimeter
(in)
sea level
(mb)
Rmks
4:35 am CDT S 15.0 10.00 Fair -- 82.0 29.1 15% NA 80 29.77 M
4:15 am CDT S 16.1 10.00 Fair -- 81.0 15.8 8% NA 79 29.77 M
3:55 am CDT S 9.2 10.00 Fair -- 76.0 18.0 11% NA NA 29.76 M
3:35 am CDT S 11.5 10.00 Fair -- 73.0 20.8 14% NA NA 29.76 M
3:15 am CDT SW 4.6 10.00 Fair -- 69.0 22.3 17% NA NA 29.75 M
2:55 am CDT SW 4.6 10.00 Fair -- 74.0 21.2 14% NA NA 29.75 M
2:15 am CDT W 9.2 10.00 Fair -- 74.0 22.5 14% NA NA 29.75 M
1:55 am CDT SW 6.9 10.00 Fair -- 77.0 21.4 12% NA NA 29.74 M
1:35 am CDT SW 6.9 10.00 Fair -- 78.0 22.5 13% NA NA 29.74 M
1:15 am CDT SW 6.9 10.00 Fair -- 77.0 23.9 14% NA NA 29.74 M
12:55 am CDT S 3.5 10.00 Fair -- 77.0 25.0 14% NA NA 29.73 M
12:15 am CDT SW 5.8 10.00 Fair -- 80.0 26.8 14% NA 78 29.72 M
11:55 pm CDT SW 4.6 10.00 Fair -- 81.0 27.3 14% NA 79 29.71 M
11:35 pm CDT SW 4.6 10.00 Fair -- 80.0 27.9 15% NA 78 29.71 M
11:15 pm CDT SW 5.8 10.00 Fair -- 80.0 28.6 15% NA 78 29.71 M
10:55 pm CDT S 5.8 10.00 Fair -- 83.0 28.0 13% NA 80 29.69 M
10:35 pm CDT S 4.6 10.00 Fair -- 85.0 29.1 13% NA 82 29.69 M
9:35 pm CDT S 4.6 10.00 Fair -- 87.0 26.6 11% NA 83 29.66 M
9:15 pm CDT SW 5.8 10.00 Fair -- 89.0 26.1 10% NA 85 29.65 M
8:55 pm CDT SW 6.9 10.00 Fair -- 91.0 25.3 9% NA 87 29.64 M
8:35 pm CDT SW 8.1 10.00 Fair -- 92.0 25.5 9% NA 88 29.64 M
8:15 pm CDT SW 9.2 10.00 Fair -- 94.0 25.3 8% NA 89 29.63 M
7:55 pm CDT SW 13.8 10.00 Fair -- 94.0 24.8 8% NA 89 29.63 M
7:35 pm CDT SW 15.0 10.00 Fair -- 95.0 24.8 8% NA 90 29.63 M

Regional Weather Observation


Andrews County Airport, TX (KE11)

Fair
68.0 F

Seminole, Gaines County Airport, TX (KGNC)

Fair
63.0 F

Midland, Midland International Airport, TX (KMAF)

Fair
78.0 F

Odessa, Odessa-Schlemeyer Field, TX (KODO)

Fair
72.0 F

Lamesa Municipal Airport, TX (KLUV)

Fair
64.0 F

Big Spring, Big Spring McMahon-Wrinkle Airport, TX (KBPG)

Fair
74.0 F

Advertise Here


Advertise Here